Location: Ammerl�gen
(47.2167°N, 9.6000°E)
Time: 20:07:51
(UTC+00:00)

DMSP 5D-2 F13 DEB - Pass Details

Date: 01 November 2021
Orbit: 758 x 780 km, 98.7° (Epoch: 03 December)

Event Time Altitude Azimuth Distance (km) Brightness Sun altitude
Exits shadow 19:43:08 20° 329° (NNW) 1,733 ? -37.2°
Drops below altitude 10° 19:44:40 10° 336° (NNW) 2,299 ? -37.4°
Sets 19:47:02 0° 342° (NNW) 3,228 ? -37.8°
